Regional Weather Roundup
Issued by NWS

Home | Current Version | Previous Version | Graphics & Text | Print | Product List | Glossary On
Versions: 1 2 3 4 5 6 7 8 9 10 11 12 13 14 15 16 17 18 19 20 21 22 23 24 25 26 27 28 29 30 31 32 33 34 35 36 37 38 39 40 41 42 43 44 45 46 47 48 49 50
000
ASUS43 KLSX 220907
RWRMO

WEATHER SUMMARY FOR MISSOURI
NATIONAL WEATHER SERVICE SPRINGFIELD MO
300 AM CST SUN JAN 22 2017

NOTE: "FAIR" INDICATES FEW OR NO CLOUDS BELOW 12,000 FEET WITH NO
       SIGNIFICANT WEATHER AND/OR OBSTRUCTIONS TO VISIBILITY.
       CURRENT SKY AND/OR WEATHER CONDITIONS ARE NOT AVAILABLE FOR
       CHILLICOTHE AND FARMINGTON.

MOZ001>031-035>038-043-044-053-054-221000-
...NORTHERN AND WESTERN MISSOURI...

CITY           SKY/WX    TMP DP  RH WIND       PRES   REMARKS
KANSAS CTY INT CLOUDY    46  41  82 NE8       29.54R
KANSAS C DTWN  CLOUDY    47  45  93 E9        29.54R
LEE`S SUMMIT   RAIN      46  45  96 NE12      29.54R FOG
ST JOSEPH      CLOUDY    42  41  96 N10       29.57R
CHILLICOTHE      N/A     43  41  93 CALM      29.58R
KIRKSVILLE     CLOUDY    40  40 100 E6        29.58R FOG

$$
MOZ066>068-077>081-088>096-101>105-221000-
...SOUTHWEST MISSOURI...

CITY           SKY/WX    TMP DP  RH WIND       PRES   REMARKS
SPRINGFIELD    CLOUDY    51  48  89 NE8       29.44R
JOPLIN         LGT RAIN  50  49  96 N9        29.44R
BRANSON        CLOUDY    50  50 100 E3        29.42S

$$
MOZ032>034-039>042-045>050-055>058-069>072-221000-
...CENTRAL MISSOURI...

CITY           SKY/WX    TMP DP  RH WIND       PRES   REMARKS
COLUMBIA       LGT RAIN  48  46  93 NE9       29.50F
JEFFERSON CITY CLOUDY    50  45  83 N9        29.49R
ROLLA          MOCLDY    48  46  93 N8        29.46S
SEDALIA        CLOUDY    48  44  86 N12       29.51F
WHITEMAN AFB   MOCLDY    46  46 100 N10       29.51S
WARRENSBURG    CLOUDY    45  43  93 N9        29.53S
OSAGE BEACH    CLOUDY    49  47  93 NE9       29.48S

$$
MOZ051-052-059>065-221000-
...EAST CENTRAL MISSOURI...

CITY           SKY/WX    TMP DP  RH WIND       PRES   REMARKS
ST LOUIS INTL  CLOUDY    49  41  74 NW7       29.51R
SPIRIT OF STL  CLOUDY    49  42  77 N6        29.50S
ST CHARLES     PTCLDY    46  42  86 W9        29.52R

$$
MOZ072>076-082>087-097>100-106>115-221000-
...SOUTH CENTRAL AND SOUTHEAST MISSOURI...

CITY           SKY/WX    TMP DP  RH WIND       PRES   REMARKS
CAPE GIRARDEAU CLOUDY    48  47  96 CALM      29.47S
FARMINGTON     FOG       45  45 100 SE6       29.49R VSB 1/2
POPLAR BLUFF   CLOUDY    52  52 100 N3        29.45F FOG
WEST PLAINS    CLOUDY    55  54  96 E5        29.45S

$$



USA.gov is the U.S. government's official web portal to all federal, state and local government web resources and services.